User: anonymous   Login
Location: Freistadt
(48.5112°N, 14.5013°E)
Time: 19:52:14
(UTC+02:00)
Language:

NOAA 16 DEB - Orbit

View from above orbital plane
View from above orbital plane
View from above satellite
View from above satellite

Ground track
Ground track

The orbit data is extracted from the following two-line orbital elements,

1 41512U 00055ML  24148.86978515  .00007871  00000-0  26962-2 0  9991
2 41512  98.9591 304.2229 0040052 135.1204 225.3231 14.36026837425790
Epoch (UTC): 27 May 2024 20:52:29
Eccentricity: 0.0040052
inclination: 98.9591°
perigee height: 743 km
apogee height: 800 km
right ascension of ascending node: 304.2229°
argument of perigee: 135.1204°
revolutions per day: 14.36026837
mean anomaly at epoch: 225.3231°
orbit number at epoch: 42579

The dashed part of the orbit path shows where the satellite is in the earth's shadow,  

DLR